Regional Weather Roundup
Issued by NWS

Home | Current Version | Previous Version | Text Only | Print | Product List | Glossary On
Versions: 1 2 3 4 5 6 7 8 9 10 11 12 13 14 15 16 17 18 19 20 21 22 23 24 25 26 27 28 29 30 31 32 33 34 35 36 37 38 39 40 41 42 43 44 45 46 47 48 49 50
000
ASUS42 KFFC 032303
RWRGA
WEATHER ROUNDUP FOR GEORGIA
NATIONAL WEATHER SERVICE PEACHTREE CITY GA
700 PM EDT SUN MAY 03 2015

NOTE: "FAIR" INDICATES FEW OR NO CLOUDS BELOW 12,000 FEET WITH NO
SIGNIFICANT WEATHER AND/OR OBSTRUCTIONS TO VISIBILITY.

* = USE WITH CAUTION. THE STATIONS MARKED WITH AN ASTERISK MAY NOT
REPORT WEATHER SUCH AS PRECIPITATION, FOG, OR THUNDER AND ARE NOT
QUALITY CONTROLLED BY NWS.

THE REMARK "TC" DENOTES TEMPERATURE READING IN DEGREES CELSIUS.

GAZ001>058-040000-
NORTH GEORGIA

CITY           SKY/WX    TMP DP  RH WIND       PRES   REMARKS
ATLANTA        PTSUNNY   76  46  34 SW7       30.13S
ATHENS         SUNNY     77  47  34 VRB5      30.14R
CHAMBLEE       MOSUNNY   76  47  35 S6        30.13S
PEACHTREE CITY MOSUNNY   77  50  38 VRB3      30.13S
ROME           SUNNY     79  47  32 W6        30.10S
WEST ATLANTA   PTSUNNY   79  46  31 VRB6      30.12S
GAINESVILLE    PTSUNNY   76  47  35 S5        30.16S
CARTERSVILLE   PTSUNNY   77  47  34 S6        30.12S


CITY           SKY/WX    TMP DP  RH WIND       PRES   REMARKS
DALTON*        SUNNY     77  50  38 CALM      30.12S
LAWRENCEVILLE* MOSUNNY   77  46  33 SE6       30.14S
MARIETTA       PTSUNNY   77  46  33 S7        30.13S
KENNESAW*      MOSUNNY   77  48  36 SW6       30.13F
BLAIRSVILLE*     N/A     73  32  21 W7        30.16R
$$

GAZ059>098-102>109-040000-
CENTRAL GEORGIA

CITY           SKY/WX    TMP DP  RH WIND       PRES   REMARKS
AUGUSTA-BUSH   MOSUNNY   78  50  37 E3        30.13S
AUGUSTA-DANIEL MOSUNNY   79  48  33 SW6       30.14S
COLUMBUS       MOSUNNY   79  45  29 SW6       30.11S
MACON          SUNNY     76  53  44 SE5       30.13S
ROBINS AFB     SUNNY     76  53  45 SE3       30.12S


CITY           SKY/WX    TMP DP  RH WIND       PRES   REMARKS
LAGRANGE*      MOSUNNY   81  52  35 SW5       30.12S
SYLVANIA*      CLOUDY    79  52  39 CALM      30.15S
MILLEDGEVILLE* SUNNY     77  55  47 CALM      30.13S
$$

GAZ099>101-110>166-040000-
SOUTH GEORGIA

CITY           SKY/WX    TMP DP  RH WIND       PRES   REMARKS
SAVANNAH       MOSUNNY   77  46  33 S9        30.15S
VALDOSTA       MOSUNNY   80  47  31 SE5       30.12S
ALMA           SUNNY     77  51  40 SE3       30.13S
ST SIMONS      SUNNY     74  49  41 SE7       30.17S
FT STEWART     SUNNY     77  50  38 SE7       30.13S
ALBANY         SUNNY     79  49  34 CALM      30.14R
HUNTER AFB     SUNNY     75  51  42 S10       30.13S
MOODY AFB      SUNNY     80  48  32 SE7       30.11S
BRUNSWICK      SUNNY     77  41  27 E9        30.17S


CITY           SKY/WX    TMP DP  RH WIND       PRES   REMARKS
BAINBRIDGE*    SUNNY     81  52  36 CALM      30.11S
MOULTRIE*      MOSUNNY   81  48  32 E5        30.13S
VIDALIA*       SUNNY     77  52  41 S3        30.15R
WAYCROSS*      SUNNY     80  52  37 SE7       30.14R
DOUGLAS*       MOSUNNY   81  45  28 E5        30.14S
$$



USA.gov is the U.S. government's official web portal to all federal, state and local government web resources and services.